Hourly Data Report for October 09, 2013

All times are specified in Local Standard Time (LST). Add 1 hour to adjust for Daylight Saving Time where and when it is observed.

CAPE DORSET A
NUNAVUT

64°13'49.000" N
76°31'30.000" W
48.20 m
2400637
71366
YTE

Download Data

Hourly Data (October 2013)
Hourly Data Report for October 9, 2013
Temp Definition
°C
Dew Point Temp Definition
°C
Rel Hum Definition
%
Wind Dir Definition
10's deg

Wind Spd Definition
km/h
Visibility Definition
km
Stn Press Definition
kPa
Hmdx Definition


Wind Chill Definition


Weather Definition


TIME
00:00 Legend Double Dagger -1.6 -4.6 80 31 45 16.1 99.18   -10 LegendNANA
01:00 Legend Double Dagger -1.9 -4.8 80 32 42 16.1 99.25   -10 LegendNANA
02:00 Legend Double Dagger -2.0 -4.7 82 32 41 16.1 99.33   -10 LegendNANA
03:00 Legend Double Dagger -1.8 -4.2 84 31 33 16.1 99.39   -9 LegendNANA
04:00 Legend Double Dagger -1.6 -4.0 84 33 33 16.1 99.48   -9 LegendNANA
05:00 Legend Double Dagger -1.8 -4.8 80 31 37 16.1 99.57   -10 LegendNANA
06:00 Legend Double Dagger -1.9 -4.5 82 31 35 16.1 99.64   -9 LegendNANA
07:00 Legend Double Dagger -2.2 -4.5 84 31 41 6.4 99.68   -10 LegendNANA
08:00 Legend Double Dagger -2.0 -4.2 85 32 41 11.3 99.75   -10 LegendNANA
09:00 Legend Double Dagger -1.8 -4.8 80 32 41 16.1 99.80   -10 LegendNANA
10:00 Legend Double Dagger -1.7 -4.7 80 32 37 16.1 99.88   -9 LegendNANA
11:00 Legend Double Dagger -1.3 -5.2 75 32 33 16.1 99.95   -8 LegendNANA
12:00 Legend Double Dagger -1.1 -5.5 72 30 39 16.1 99.97   -9 LegendNANA
13:00 Legend Double Dagger -0.9 -5.1 73 30 37 16.1 100.07   -8 LegendNANA
14:00 Legend Double Dagger -1.1 -6.1 69 31 32 16.1 100.20   -8 LegendNANA
15:00 Legend Double Dagger -1.4 -5.2 76 32 28 16.1 100.31   -8 LegendNANA
16:00 Legend Double Dagger -1.6 -5.5 75 31 26 16.1 100.38   -8 LegendNANA
17:00 Legend Double Dagger -2.5 -5.3 81 30 24 16.1 100.46   -9 LegendNANA
18:00 Legend Double Dagger -2.4 -5.4 80 31 26 16.1 100.55   -9 LegendNANA
19:00 Legend Double Dagger -2.5 -6.2 76 31 24 16.1 100.64   -9 LegendNANA
20:00 Legend Double Dagger -2.5 -5.2 82 31 28 16.1 100.68   -10 LegendNANA
21:00 Legend Double Dagger -2.9 -5.7 81 32 22 16.1 100.75   -9 LegendNANA
22:00 Legend Double Dagger -3.0 -5.9 80 31 32 16.1 100.81   -11 LegendNANA
23:00 Legend Double Dagger -3.1 -6.5 78 30 26 16.1 100.89   -10 LegendNANA

Notes on Data Quality.

Legend

  • E = Estimated
  • M = Missing
  • NA = Not Available
  • ‡ = Partner data that is not subject to review by the National Climate Archives
Date modified: